SCP
0 0 0 0 0 0 0 0 -0 -0 -0 0 -0 0 0 0 0 0 0 0 0 0 0 0 0 0 0 0 0 0 0 0 0 0 0 0 0 0
0 0 0 0 0 0 0 0 0 -0 0 0 0 0 0 0 0 0 0 0 0 0 0 0 0 0 0 0 0 0 0 0 0 0 0 0 0 0
0 0 0 0 0 0 0 0 0 0 0 0 0 0 0 0 0 0 0 0 0 0 0 0 0 0 0 0 0 0 0 0 0 0 0 0 0 0
0 0 0 0 0 0 0 0 -0 -0 -0 0 0 0 0 0 0 0 0 0 0 -0 0 0 0 0 0 0 0 0 0 0 0 0 0 0 0 0
0 0 0 0 0 -0 -0 -0 -0 -0 -0 -0 -0 0 0 0 0 0 0 0 0 -0 0 0 0 0 0 0 0 0 0 0 0 0 0 0 0 0
0 0 0 0 -0 -0 -0 -0 -0 -0 -0 -0 -0 -0 -0 0 0 0 0 0 0 0 0 0 0 0 0 0 0 0 0 0 0 0 0 0 0 0
-0 -0 -0 -0 -0 -0 -0 -0 -0 -0 -0 -0 -0 -0 -0 0 0 0 0 0 0 0 0 0 0 0 0 0 0 0 0 0 0 0 0 0 0 0
-0 -0 -0 -0 -0 -0 -0 0 -0 -0 -0 -0 -0 -0 0 0 0 0 0 0 0 0 0 0 0 0 0 0 0 0 0 0 0 0 0 0 0 0
-0 -0 -0 -0 -0 -0 -0 -0 -0 0 0 -0 0 0 0 0 0 0 0 0 0 0 0 0 0 0 0 0 0 0 0 0 0 -0 0 0 0 0
-0 -0 -0 -0 -0 -0 -0 -0 -0 -0 0 0 0 0 0 0 0 0 0 0 0 0 0 0 0 0 0 0 0 0 0 0 0 -0 0 0 -0 0
-0 -0 -0 -0 -0 -0 -0 -0 0 0 0 0 0 0 0 0 0 0 0 0 0 0 0 0 0 0 0 0 0 0 0 0 -0 -0 -0 0 -0 -0
-0 -0 -0 -0 -0 -0 -0 -0 0 0 0 0 0 0 0 0 0 0 0 0 0 0 0 0 0 0 0 0 0 0 0 0 0 0 -0 0 -0 0
-0 -0 -0 -0 -0 0 0 0 -0 -0 0 0 0 0 0 0 0 0 0 0 0 0 0 0 0 0 0 0 0 0 0 0 0 0 0 0 0 0
-0 -0 -0 -0 -0 0 0 0 0 0 0 0 0 0 0 0 0 0 0 0 0 0 0 0 0 0 0 0 0 0 0 0 0 0 0 0 -0 -0
0 -0 -0 -0 0 0 0 0 0 0 0 0 0 0 0 0 0 0 0 0 0 0 0 0 0 0 0 0 0 0 0 0 0 0 0 0 0 0
0 0 -0 0 0 0 0 0 0 0 0 0 0 0 0 0 0 0 0 0 0 0 0 0 0 0 0 0 0 0 0 0 0 0 0 0 0 0
0 0 -0 0 0 0 0 0 0 0 0 0 0 0 0 0 0 0 0 0 0 0 0 0 0 0 0 0 0 0 0 0 0 0 0 0 0 0
0 0 0 0 0 0 0 0 0 0 0 0 0 0 0 0 0 0 0 0 0 0 0 0 0 0 0 0 0 0 0 0 0 0 0 0 0 0
0 0 0 0 0 0 0 0 0 0 0 0 0 0 0 0 0 0 0 0 0 0 0 0 0 0 0 0 0 0 0 0 0 0 0 0 0 0
0 0 0 0 0 0 0 0 0 0 0 0 0 0 0 0 0 0 0 0 0 0 0 0 0 0 0 0 0 0 0 0 0 0 0 0 0 -0
0 0 0 0 0 0 0 0 0 0 0 0 0 0 0 0 0 0 0 0 0 0 0 0 0 0 0 0 0 0 0 0 0 0 0 0 0 0
0 0 0 0 0 0 0 0 0 0 0 0 0 0 0 0 0 0 0 0 0 0 0 0 0 0 0 0 0 0 0 0 -0 -0 -0 0 0 0
0 0 0 0 0 0 0 0 0 0 0 0 0 0 0 0 0 0 0 0 0 0 0 0 0 0 0 0 0 0 0 0 0 0 -0 -0 -0 -0
Wind_Speed_500mb
32 27 25 26 22 21 21 23 26 21 17 27 44 50 51 54 56 59 60 57 56 57 58 59 57 51 51 54 51 52 51 49 46 47 39 38 33 30
29 23 22 24 21 21 23 25 27 27 20 32 40 47 51 52 56 58 58 58 58 59 59 58 55 47 53 59 60 47 51 46 45 41 28 27 25 17
26 23 25 26 24 25 26 26 28 31 34 36 40 43 46 51 54 55 58 59 56 56 56 56 56 50 55 62 60 48 48 54 44 42 34 39 36 34
29 26 30 29 27 30 32 33 34 35 35 38 42 49 56 62 65 67 66 64 64 56 56 59 60 56 55 53 48 41 39 52 49 45 46 38 48 51
32 33 34 31 31 32 33 34 35 37 41 43 49 57 65 73 77 75 74 69 64 62 61 61 55 51 45 43 39 37 41 42 40 43 47 44 41 46
34 34 34 34 36 37 37 39 39 41 46 56 64 70 74 74 72 76 74 69 65 61 59 51 47 45 47 35 37 42 48 45 43 41 35 39 36 40
32 33 38 39 41 43 41 45 51 54 59 61 63 69 71 69 72 75 76 78 67 68 56 49 48 43 44 39 51 56 50 45 43 43 23 31 33 32
31 36 40 38 42 43 46 49 49 52 57 61 65 63 60 61 64 70 75 80 76 61 57 57 51 45 33 38 48 49 48 48 43 39 35 34 33 21
32 34 37 41 37 38 43 44 49 51 53 55 54 55 55 60 66 67 65 63 60 52 61 58 56 40 25 36 45 51 53 46 45 33 23 25 16 14
30 35 37 33 35 39 41 43 42 44 45 47 49 49 52 54 57 60 61 59 54 39 59 51 58 37 20 47 49 49 56 45 37 31 23 24 18 18
30 32 28 32 39 37 35 35 36 37 41 42 44 45 47 50 55 58 61 62 61 39 55 47 56 55 24 49 50 53 53 39 29 31 13 21 24 12
25 25 28 30 27 28 28 31 33 37 39 37 38 42 46 50 55 57 56 53 50 33 51 49 52 58 35 56 51 63 53 41 28 17 8 8 19 12
19 21 23 23 25 28 29 31 36 40 37 37 40 42 47 49 50 50 48 45 41 38 42 40 46 51 50 62 57 62 46 46 35 19 12 5 10 12
16 16 18 22 23 26 28 31 32 34 35 38 40 44 49 51 50 48 42 37 35 38 37 31 35 37 44 53 60 56 37 43 42 32 22 22 16 17
11 12 16 18 19 22 24 25 28 30 34 39 44 48 50 49 47 44 39 31 27 28 28 26 24 23 26 38 48 47 46 42 41 29 29 23 23 19
6 9 11 12 14 17 21 24 28 32 38 41 42 43 44 45 47 47 46 39 25 18 23 26 21 16 19 30 39 32 31 28 28 24 23 25 23 20
6 5 6 8 11 16 19 23 27 31 33 36 39 42 44 44 45 44 42 40 38 34 24 20 19 17 22 25 30 26 25 23 21 15 11 18 22 21
5 3 1 4 8 13 17 22 25 28 30 34 39 43 45 46 45 43 42 40 36 35 33 28 21 19 17 15 24 22 21 22 17 12 12 16 23 20
9 8 9 5 7 12 16 20 25 28 31 34 36 39 41 43 45 46 45 42 37 32 29 29 24 20 18 18 19 18 21 17 8 8 10 13 16 15
15 13 10 7 6 11 15 20 24 27 30 32 33 36 40 43 44 45 45 45 43 38 29 23 20 17 15 14 15 15 13 10 7 9 11 12 13 13
20 17 11 9 7 10 14 18 22 25 28 31 33 35 38 41 42 43 43 43 41 38 34 27 22 17 11 6 5 1 4 4 2 5 9 11 11 17
25 21 16 12 8 9 13 16 20 24 28 31 32 33 36 39 41 43 44 45 43 40 34 29 21 13 7 6 5 3 3 5 4 10 6 1 3 18
30 24 19 15 11 12 13 15 19 24 28 29 30 32 36 37 40 42 42 42 42 38 35 27 20 12 6 4 4 4 9 12 8 6 15 36 27 25
Wind_Direction_500mb
87 81 73 66 54 43 30 20 26 18 12 338 346 351 354 352 351 349 348 347 339 334 330 326 322 318 320 311 309 313 311 312 315 312 326 325 325 306
85 77 71 60 49 41 32 26 23 22 18 3 2 0 3 6 5 2 358 355 351 345 342 338 334 336 319 313 306 306 318 314 319 315 308 295 291 283
81 69 66 60 50 47 43 36 32 30 23 22 15 9 7 9 9 7 3 359 356 352 346 341 338 328 314 320 323 309 318 310 308 312 296 285 304 304
77 73 71 64 58 53 47 42 37 35 28 22 15 12 9 9 4 3 6 6 359 356 353 345 342 339 334 329 331 316 303 312 318 310 303 300 300 297
80 75 68 62 58 54 52 49 41 36 31 23 18 12 9 5 1 359 1 1 358 356 357 351 348 347 347 344 347 343 333 316 312 304 308 308 304 303
82 75 67 62 59 54 49 45 40 34 29 22 17 12 8 4 356 355 358 3 358 1 2 357 8 12 10 5 352 339 334 329 318 308 301 307 309 312
76 73 68 61 54 46 42 39 34 26 22 17 12 10 3 358 357 357 357 355 5 359 5 7 4 5 12 10 358 350 345 336 324 319 329 319 315 313
73 66 62 58 51 43 37 31 27 24 19 15 11 4 360 358 357 358 357 358 359 358 360 3 2 2 359 15 11 357 352 349 332 318 328 322 321 315
71 68 63 56 49 43 38 29 22 18 17 13 6 1 0 360 358 357 358 358 357 358 0 10 12 16 34 15 6 356 354 352 354 339 327 332 345 342
76 67 59 55 51 44 35 27 19 16 15 13 8 2 0 359 359 357 354 357 5 6 3 6 9 18 13 11 360 356 354 351 356 3 19 19 10 6
64 62 60 52 45 37 31 24 17 15 17 15 8 3 2 359 359 359 1 358 4 5 5 0 5 6 37 13 3 5 2 1 357 8 53 22 29 36
69 64 57 52 47 40 32 26 16 16 16 13 9 7 5 7 4 2 359 359 358 2 353 1 6 9 359 9 15 10 6 15 11 7 27 36 24 20
72 65 60 51 44 37 29 22 19 17 12 9 11 11 11 11 7 4 360 359 358 357 354 355 1 6 6 359 13 13 10 15 19 21 32 155 19 49
74 69 57 47 39 31 25 19 20 14 7 6 9 11 13 11 12 7 5 360 357 353 356 354 353 5 3 3 1 9 21 25 28 38 73 118 89 79
90 76 57 46 32 22 17 12 14 7 5 7 12 13 14 10 7 7 6 13 1 352 353 353 355 7 2 7 3 4 11 30 37 61 101 82 75 79
112 77 59 40 23 11 6 2 4 4 6 8 10 10 10 8 6 3 2 2 10 16 358 352 352 353 359 11 5 13 23 38 50 64 79 85 82 79
119 71 38 14 8 359 353 354 0 3 2 1 3 7 5 8 7 5 2 0 357 357 8 9 353 357 356 4 12 22 25 41 56 59 68 87 86 84
155 137 265 302 345 342 343 349 355 357 358 359 360 2 1 3 5 5 1 0 357 351 350 353 0 4 0 17 19 35 35 35 48 62 78 93 91 81
206 209 229 262 329 337 340 345 350 353 354 356 356 357 358 360 0 2 359 355 359 358 349 345 347 355 360 22 37 38 47 28 31 83 87 87 84 63
224 230 233 265 309 331 336 343 348 348 347 349 350 352 354 355 358 360 356 353 350 352 353 343 339 337 338 9 41 42 45 51 37 62 57 43 38 32
232 236 236 255 284 321 330 338 342 341 341 342 345 349 349 350 356 355 352 351 348 346 349 349 347 340 326 324 2 71 59 50 48 13 16 24 51 77
234 233 235 243 262 298 315 327 333 334 335 336 338 343 345 346 351 350 351 350 349 345 344 342 341 336 324 294 274 241 39 50 86 95 34 294 187 133
236 231 234 237 247 273 293 313 322 324 325 327 333 338 338 341 345 345 350 349 345 344 340 342 337 333 337 342 235 206 119 154 159 193 100 109 124 136
Wind_Speed_850mb
32 27 25 26 22 21 21 23 26 21 17 27 44 50 51 54 56 59 60 57 56 57 58 59 57 51 51 54 51 52 51 49 46 47 39 38 33 30
29 23 22 24 21 21 23 25 27 27 20 32 40 47 51 52 56 58 58 58 58 59 59 58 55 47 53 59 60 47 51 46 45 41 28 27 25 17
26 23 25 26 24 25 26 26 28 31 34 36 40 43 46 51 54 55 58 59 56 56 56 56 56 50 55 62 60 48 48 54 44 42 34 39 36 34
29 26 30 29 27 30 32 33 34 35 35 38 42 49 56 62 65 67 66 64 64 56 56 59 60 56 55 53 48 41 39 52 49 45 46 38 48 51
32 33 34 31 31 32 33 34 35 37 41 43 49 57 65 73 77 75 74 69 64 62 61 61 55 51 45 43 39 37 41 42 40 43 47 44 41 46
34 34 34 34 36 37 37 39 39 41 46 56 64 70 74 74 72 76 74 69 65 61 59 51 47 45 47 35 37 42 48 45 43 41 35 39 36 40
32 33 38 39 41 43 41 45 51 54 59 61 63 69 71 69 72 75 76 78 67 68 56 49 48 43 44 39 51 56 50 45 43 43 23 31 33 32
31 36 40 38 42 43 46 49 49 52 57 61 65 63 60 61 64 70 75 80 76 61 57 57 51 45 33 38 48 49 48 48 43 39 35 34 33 21
32 34 37 41 37 38 43 44 49 51 53 55 54 55 55 60 66 67 65 63 60 52 61 58 56 40 25 36 45 51 53 46 45 33 23 25 16 14
30 35 37 33 35 39 41 43 42 44 45 47 49 49 52 54 57 60 61 59 54 39 59 51 58 37 20 47 49 49 56 45 37 31 23 24 18 18
30 32 28 32 39 37 35 35 36 37 41 42 44 45 47 50 55 58 61 62 61 39 55 47 56 55 24 49 50 53 53 39 29 31 13 21 24 12
25 25 28 30 27 28 28 31 33 37 39 37 38 42 46 50 55 57 56 53 50 33 51 49 52 58 35 56 51 63 53 41 28 17 8 8 19 12
19 21 23 23 25 28 29 31 36 40 37 37 40 42 47 49 50 50 48 45 41 38 42 40 46 51 50 62 57 62 46 46 35 19 12 5 10 12
16 16 18 22 23 26 28 31 32 34 35 38 40 44 49 51 50 48 42 37 35 38 37 31 35 37 44 53 60 56 37 43 42 32 22 22 16 17
11 12 16 18 19 22 24 25 28 30 34 39 44 48 50 49 47 44 39 31 27 28 28 26 24 23 26 38 48 47 46 42 41 29 29 23 23 19
6 9 11 12 14 17 21 24 28 32 38 41 42 43 44 45 47 47 46 39 25 18 23 26 21 16 19 30 39 32 31 28 28 24 23 25 23 20
6 5 6 8 11 16 19 23 27 31 33 36 39 42 44 44 45 44 42 40 38 34 24 20 19 17 22 25 30 26 25 23 21 15 11 18 22 21
5 3 1 4 8 13 17 22 25 28 30 34 39 43 45 46 45 43 42 40 36 35 33 28 21 19 17 15 24 22 21 22 17 12 12 16 23 20
9 8 9 5 7 12 16 20 25 28 31 34 36 39 41 43 45 46 45 42 37 32 29 29 24 20 18 18 19 18 21 17 8 8 10 13 16 15
15 13 10 7 6 11 15 20 24 27 30 32 33 36 40 43 44 45 45 45 43 38 29 23 20 17 15 14 15 15 13 10 7 9 11 12 13 13
20 17 11 9 7 10 14 18 22 25 28 31 33 35 38 41 42 43 43 43 41 38 34 27 22 17 11 6 5 1 4 4 2 5 9 11 11 17
25 21 16 12 8 9 13 16 20 24 28 31 32 33 36 39 41 43 44 45 43 40 34 29 21 13 7 6 5 3 3 5 4 10 6 1 3 18
30 24 19 15 11 12 13 15 19 24 28 29 30 32 36 37 40 42 42 42 42 38 35 27 20 12 6 4 4 4 9 12 8 6 15 36 27 25
Wind_Direction_850mb
87 81 73 66 54 43 30 20 26 18 12 338 346 351 354 352 351 349 348 347 339 334 330 326 322 318 320 311 309 313 311 312 315 312 326 325 325 306
85 77 71 60 49 41 32 26 23 22 18 3 2 0 3 6 5 2 358 355 351 345 342 338 334 336 319 313 306 306 318 314 319 315 308 295 291 283
81 69 66 60 50 47 43 36 32 30 23 22 15 9 7 9 9 7 3 359 356 352 346 341 338 328 314 320 323 309 318 310 308 312 296 285 304 304
77 73 71 64 58 53 47 42 37 35 28 22 15 12 9 9 4 3 6 6 359 356 353 345 342 339 334 329 331 316 303 312 318 310 303 300 300 297
80 75 68 62 58 54 52 49 41 36 31 23 18 12 9 5 1 359 1 1 358 356 357 351 348 347 347 344 347 343 333 316 312 304 308 308 304 303
82 75 67 62 59 54 49 45 40 34 29 22 17 12 8 4 356 355 358 3 358 1 2 357 8 12 10 5 352 339 334 329 318 308 301 307 309 312
76 73 68 61 54 46 42 39 34 26 22 17 12 10 3 358 357 357 357 355 5 359 5 7 4 5 12 10 358 350 345 336 324 319 329 319 315 313
73 66 62 58 51 43 37 31 27 24 19 15 11 4 360 358 357 358 357 358 359 358 360 3 2 2 359 15 11 357 352 349 332 318 328 322 321 315
71 68 63 56 49 43 38 29 22 18 17 13 6 1 0 360 358 357 358 358 357 358 0 10 12 16 34 15 6 356 354 352 354 339 327 332 345 342
76 67 59 55 51 44 35 27 19 16 15 13 8 2 0 359 359 357 354 357 5 6 3 6 9 18 13 11 360 356 354 351 356 3 19 19 10 6
64 62 60 52 45 37 31 24 17 15 17 15 8 3 2 359 359 359 1 358 4 5 5 0 5 6 37 13 3 5 2 1 357 8 53 22 29 36
69 64 57 52 47 40 32 26 16 16 16 13 9 7 5 7 4 2 359 359 358 2 353 1 6 9 359 9 15 10 6 15 11 7 27 36 24 20
72 65 60 51 44 37 29 22 19 17 12 9 11 11 11 11 7 4 360 359 358 357 354 355 1 6 6 359 13 13 10 15 19 21 32 155 19 49
74 69 57 47 39 31 25 19 20 14 7 6 9 11 13 11 12 7 5 360 357 353 356 354 353 5 3 3 1 9 21 25 28 38 73 118 89 79
90 76 57 46 32 22 17 12 14 7 5 7 12 13 14 10 7 7 6 13 1 352 353 353 355 7 2 7 3 4 11 30 37 61 101 82 75 79
112 77 59 40 23 11 6 2 4 4 6 8 10 10 10 8 6 3 2 2 10 16 358 352 352 353 359 11 5 13 23 38 50 64 79 85 82 79
119 71 38 14 8 359 353 354 0 3 2 1 3 7 5 8 7 5 2 0 357 357 8 9 353 357 356 4 12 22 25 41 56 59 68 87 86 84
155 137 265 302 345 342 343 349 355 357 358 359 360 2 1 3 5 5 1 0 357 351 350 353 0 4 0 17 19 35 35 35 48 62 78 93 91 81
206 209 229 262 329 337 340 345 350 353 354 356 356 357 358 360 0 2 359 355 359 358 349 345 347 355 360 22 37 38 47 28 31 83 87 87 84 63
224 230 233 265 309 331 336 343 348 348 347 349 350 352 354 355 358 360 356 353 350 352 353 343 339 337 338 9 41 42 45 51 37 62 57 43 38 32
232 236 236 255 284 321 330 338 342 341 341 342 345 349 349 350 356 355 352 351 348 346 349 349 347 340 326 324 2 71 59 50 48 13 16 24 51 77
234 233 235 243 262 298 315 327 333 334 335 336 338 343 345 346 351 350 351 350 349 345 344 342 341 336 324 294 274 241 39 50 86 95 34 294 187 133
236 231 234 237 247 273 293 313 322 324 325 327 333 338 338 341 345 345 350 349 345 344 340 342 337 333 337 342 235 206 119 154 159 193 100 109 124 136